Powrót do katalogu

QIANFAN-187

AktywnyŁącznośćPO
NORAD 69405·PAYLOAD·🇨🇳 China

Wystrzelony Jun 5, 2026 z Wenchang Space Launch Site

Loading…

Następne Przeloty (najbliższe 24 godziny)

TLE

ŚwieżeSource: Space-Track

Epoka: Sep 14, 2026, 21:54 UTC

1 69405U 26125E   26257.91253217  .00000017  00000-0  81683-5 0  9991
2 69405  88.9885 270.8844 0002110 100.6032 259.5357 13.51007283 14068

Śledź QIANFAN-187 w czasie rzeczywistym z AllMySat

Download on the App Store